Starlink 11475

operational
NORAD ID: 62226 Int'l Des: 2024-231 Owner: SPXS Country: US Constellation: starlink
LEOCIRCULAR

关于 Starlink 11475

正在加载描述...

实时位置

正在加载3D地球...

即将过境

高度历史

Altitude vs Time

uPlot chart will show altitude changes over time

两行轨道根数

1 62226U 24231J 25352.89322215 .00127839 00000-0 10418-2 0 9995
2 62226 53.1572 139.4049 0001036 83.7538 276.3598 15.69758598 60725
Epoch: Dec 18, 2025 • Age: 7 hours

当前状态

高度 373.4 km
速度 7.69 km/s
星下点 -40.88°S, 63°W
发射日期 Dec 5, 2024
运行时间 1 years
类型 internet

技术详情

分类 Payload
质量 960.00 kg
干质量 910.00 kg
总质量 960.00 kg
长度 0.30 m
直径 4.10 m
跨度 29.00 m
形状 Box + pan
制造商 SPXS
平台类型 Starlink V2MD
阶段状态 In Orbit
所有者/国家 SPXS/US

大型星座

Loading constellations...